KIRCHDORF Weather Reports


Display with metric or nautical units.
time (UTC)temp
F
wind
direction
speed
MPH
gust
MPH
rain 1hr
in
rain 24hr
in
rain mn
in
humidity
%
barometer
mb
20260507083212 50 242 14.0 0.0 0.00 0.00 0.01 88 1014.6
20260507080211 50 269 8.0 0.0 0.00 0.00 0.00 90 1014.5
20260507073212 49 196 8.0 0.0 0.00 0.00 0.00 90 1014.3
20260507070212 49 272 14.0 0.0 0.00 0.00 0.00 87 1014.0
20260507063211 49 232 17.0 0.0 0.00 0.00 0.00 87 1013.7
20260507060211 49 241 13.0 0.0 0.00 0.00 0.00 88 1013.4
20260507053211 48 265 14.0 0.0 0.00 0.00 0.00 89 1013.2
20260507050213 48 205 12.0 0.0 0.00 0.00 0.00 89 1012.8
20260507043211 47 265 14.0 0.0 0.00 0.00 0.00 90 1012.5
20260507040216 47 271 10.0 0.0 0.00 0.00 0.00 89 1012.1
20260507033211 47 174 7.0 0.0 0.00 0.00 0.00 88 1012.0
20260507030211 47 256 8.0 0.0 0.00 0.00 0.00 87 1011.9
20260507023211 47 224 7.0 0.0 0.00 0.00 0.00 88 1011.6
20260507020211 46 262 11.0 0.0 0.00 0.00 0.00 92 1011.7
20260507013212 46 144 10.0 0.0 0.00 0.00 0.00 93 1011.4
20260507010211 45 187 6.0 0.0 0.00 0.00 0.00 93 1011.5
20260507003209 45 176 5.0 0.0 0.00 0.00 0.00 92 1011.5
20260507000209 46 244 4.0 0.0 0.00 0.00 0.00 91 1011.6
20260506233209 47 236 9.0 0.0 0.00 0.00 0.00 91 1011.4
20260506230209 47 242 8.0 0.0 0.00 0.00 0.00 91 1011.2
20260506223209 48 200 7.0 0.0 0.00 0.00 0.00 91 1011.3
20260506213209 48 221 6.0 0.0 0.00 0.00 0.24 91 1011.1
20260506210210 48 208 6.0 0.0 0.00 0.00 0.24 90 1010.9
20260506203210 49 262 10.0 0.0 0.00 0.00 0.24 90 1010.7
20260506200210 49 257 7.0 0.0 0.00 0.00 0.24 91 1010.6
20260506193215 49 255 7.0 0.0 0.00 0.00 0.24 90 1010.5
20260506190211 49 188 8.0 0.0 0.00 0.00 0.24 89 1009.9
20260506183209 50 229 12.0 0.0 0.00 0.00 0.24 87 1009.7
20260506180216 50 248 15.0 0.0 0.00 0.00 0.24 88 1009.2
20260506173210 50 251 14.0 0.0 0.00 0.00 0.24 88 1008.9
20260506170215 50 248 14.0 0.0 0.00 0.00 0.24 87 1008.2
20260506163210 50 269 16.0 0.0 0.00 0.00 0.24 89 1008.6
20260506160210 51 227 20.0 0.0 0.00 0.00 0.24 90 1008.4
20260506153210 52 284 20.0 0.0 0.00 0.00 0.24 90 1007.8
20260506150210 60 223 23.0 0.0 0.00 0.00 0.02 76 1006.4
20260506143210 62 217 5.0 0.0 0.00 0.00 0.02 71 1005.5
20260506140210 59 186 8.0 0.0 0.00 0.00 0.02 80 1005.6
20260506133211 62 190 5.0 0.0 0.00 0.00 0.00 66 1006.1
20260506130211 63 234 3.0 0.0 0.00 0.00 0.00 62 1006.0
20260506123210 63 86 5.0 0.0 0.00 0.00 0.00 60 1005.6
20260506120210 63 48 9.0 0.0 0.00 0.00 0.00 62 1005.3
20260506113217 63 31 7.0 0.0 0.00 0.00 0.00 63 1005.7
20260506110210 62 79 7.0 0.0 0.00 0.00 0.00 61 1006.1
20260506100213 60 26 5.0 0.0 0.00 0.00 0.00 67 1006.6
20260506093211 60 206 2.0 0.0 0.00 0.00 0.00 70 1006.7
20260506090211 59 196 3.0 0.0 0.00 0.00 0.00 76 1006.8